Date,TemperatureHighF,TemperatureAvgF,TemperatureLowF,DewpointHighF,DewpointAvgF,DewpointLowF,HumidityHigh,HumidityAvg,HumidityLow,PressureMaxIn,PressureMinIn,WindSpeedMaxMPH,WindSpeedAvgMPH,GustSpeedMaxMPH,PrecipitationSumIn
2013-2-1,32,26,19,24,11,2,85,53,36,30.36,29.77,12,4,23,0.02
2013-2-2,31,24,15,26,13,3,90,64,40,30.37,29.98,3,0,15,0.00
2013-2-3,33,29,23,29,25,17,94,84,54,29.98,29.80,7,0,13,0.00
2013-2-4,35,30,24,22,16,11,65,54,44,30.07,29.86,6,1,14,0.00
2013-2-5,41,35,30,29,26,21,79,68,57,29.90,29.81,0,0,2,0.00
2013-2-6,46,37,29,32,26,21,90,66,46,30.32,29.90,6,1,14,0.00
2013-2-7,40,34,26,30,25,20,86,71,57,30.41,30.16,4,0,11,0.00
2013-2-8,42,37,33,39,32,22,98,85,57,30.16,29.71,11,3,23,0.19
2013-2-9,40,29,29,22,0,-100,64,45,36,30.36,29.89,10,-145,23,0.00
2013-2-10,43,34,21,26,18,14,83,53,30,30.45,30.20,3,0,11,0.00
2013-2-11,52,44,37,52,42,26,100,95,63,30.20,29.67,4,1,11,0.18
2013-2-12,55,48,40,39,28,24,83,48,31,29.95,29.77,8,2,14,0.00
2013-2-13,46,38,32,37,30,24,96,74,56,29.91,29.62,5,1,11,0.25
2013-2-14,48,38,31,34,29,24,97,73,40,29.98,29.74,4,1,10,0.00
2013-2-15,59,43,31,38,32,27,94,70,33,29.99,29.85,8,1,14,0.09
2013-2-16,38,36,31,35,29,15,96,78,49,29.97,29.80,7,3,15,0.00
2013-2-17,31,28,24,16,10,3,63,49,34,30.18,29.80,12,6,26,0.00
2013-2-18,41,30,20,18,9,5,59,43,26,30.35,30.13,6,1,16,0.00
2013-2-19,44,39,34,42,30,17,94,73,51,30.13,29.69,6,2,13,0.09
2013-2-20,38,33,25,24,14,8,57,46,36,30.14,29.81,10,5,22,0.00
2013-2-21,38,30,24,17,13,8,58,49,38,30.29,30.10,8,4,16,0.00
2013-2-22,33,31,30,30,23,16,92,72,55,30.34,30.18,5,0,11,0.03
2013-2-23,44,38,32,44,38,30,100,97,92,30.18,29.77,4,1,8,0.00
2013-2-24,51,42,32,42,31,18,98,69,36,30.08,29.75,10,3,26,0.00
2013-2-25,46,36,28,25,22,18,73,56,39,30.18,30.07,5,1,11,0.00
2013-2-26,44,36,28,44,33,22,100,88,71,30.19,29.56,9,2,17,0.79
2013-2-27,56,47,39,44,38,32,100,76,46,29.66,29.48,9,2,11,0.00
2013-2-28,48,43,40,38,30,22,84,61,37,29.69,29.59,10,2,17,0.00